Location: Paddlesworth
(51.1000°N, 1.1333°E)
Time: 20:09:06
(UTC+00:00)

Cosmos 1606 - Pass Details

Date: 11 May 2021
Orbit: 503 x 525 km, 82.5° (Epoch: 21 June)

Event Time Altitude Azimuth Distance (km) Brightness Sun altitude
Rises 20:19:38 0° 208° (SSW) 2,600 6.1 -6.7°
Reaches altitude 10° 20:21:51 10° 217° (SW) 1,723 5.3 -7.0°
Maximum altitude 20:25:24 38° 286° (WNW) 792 4.3 -7.4°
Drops below altitude 10° 20:29:00 10° 356° (N) 1,749 6.1 -7.8°
Sets 20:31:16 0° 5° (N) 2,645 6.9 -8.1°
